Challis, ID

6:15 PM MDT on August 16, 2017 (GMT -0600)
Challis

Weather History for KLLJ - January, 2013

Change the Weather History Date:

Wednesday, January 30, 2013

  Actual Average Record
Temperature  
Mean Temperature 31 °F 21 °F  
Max Temperature 42 °F 31 °F 59 °F (1971)
Min Temperature 20 °F 10 °F -27 °F (1951)
Degree Days  
Heating Degree Days 34 44  
Month to date heating degree days 1531 1382  
Since 1 July heating degree days 4597 4878  
Cooling Degree Days 0 0  
Month to date cooling degree days 0 0  
Year to date cooling degree days 0 0  
Moisture  
Dew Point 18 °F    
Average Humidity 61    
Maximum Humidity 77    
Minimum Humidity 45    
Precipitation  
Precipitation 0.00 in 0.02 in 0.51 in (1915)
Month to date precipitation 0.21 0.50  
Year to date precipitation 0.21 0.50  
Sea Level Pressure  
Sea Level Pressure 30.15 in    
Wind  
Wind Speed 3 mph (NW)    
Max Wind Speed 15 mph    
Max Gust Speed 22 mph    
Visibility 10 miles    
Events      
T = Trace of Precipitation, MM = Missing Value Source: NWS Daily Summary

Daily Weather History Graph

Daily Weather History Graph

Search for Another Location

Airport or City:

Trip Planner

Search our weather history database for the weather conditions in past years. The results will help you decide how hot, cold, wet, or windy it might be!

Date:

Astronomy

Jan. 30, 2013 Rise Set
Actual Time 7:57 AM MST 5:43 PM MST
Civil Twilight 7:26 AM MST 6:14 PM MST
Nautical Twilight 6:51 AM MST 6:49 PM MST
Astronomical Twilight 6:17 AM MST 7:24 PM MST
Moon 9:59 PM MST (1/30) 9:16 AM MST (1/30)
Length of Visible Light 10h 48m
Length of Day
9h 46m
Waning Gibbous, 87% of the Moon is Illuminated
Jan 30
Waning Gibbous
Feb 3
Last Quarter
Feb 10
New
Feb 17
First Quarter
Feb 25
Full

Hourly Weather History & Observations

Time (MST) Temp. Windchill Dew Point Humidity Pressure Visibility Wind Dir Wind Speed Gust Speed Precip Events Conditions
12:55 AM 26.1 °F - 14.0 °F 60% 30.15 in 10.0 mi Calm Calm - N/A   Overcast
1:55 AM 24.1 °F - 15.1 °F 69% 30.15 in 10.0 mi Calm Calm - N/A   Overcast
2:55 AM 21.0 °F - 14.0 °F 74% 30.16 in 10.0 mi Calm Calm - N/A   Overcast
3:55 AM 21.9 °F - 12.9 °F 68% 30.15 in 10.0 mi Calm Calm - N/A   Overcast
5:55 AM 19.9 °F - 14.0 °F 78% 30.16 in 10.0 mi Calm Calm - N/A   Overcast
6:55 AM 21.0 °F - 16.0 °F 81% 30.17 in 10.0 mi Calm Calm - N/A   Overcast
8:55 AM 23.0 °F - 16.0 °F 74% 30.19 in 10.0 mi Calm Calm - N/A   Overcast
9:55 AM 26.1 °F 21.9 °F 17.1 °F 69% 30.17 in 10.0 mi NW 3.5 mph - N/A   Overcast
10:55 AM 26.1 °F - 18.0 °F 71% 30.17 in 10.0 mi Calm Calm - N/A   Overcast
11:55 AM 33.1 °F 30.0 °F 21.0 °F 61% 30.13 in 10.0 mi South 3.5 mph - N/A   Overcast
12:55 PM 34.0 °F 31.0 °F 21.0 °F 59% 30.10 in 10.0 mi NE 3.5 mph - N/A   Overcast
1:55 PM 35.1 °F - 21.9 °F 59% 30.09 in 10.0 mi Calm Calm - N/A   Overcast
2:55 PM 39.0 °F 35.7 °F 23.0 °F 53% 30.10 in 10.0 mi NNW 4.6 mph - N/A   Overcast
3:55 PM 41.0 °F 34.7 °F 21.9 °F 47% 30.09 in 10.0 mi NW 10.4 mph 21.9 mph N/A   Overcast
4:55 PM 39.9 °F 33.4 °F 21.9 °F 49% 30.12 in 10.0 mi WNW 10.4 mph - N/A   Overcast
5:55 PM 39.0 °F 32.3 °F 21.0 °F 49% 30.14 in 10.0 mi NNW 10.4 mph - N/A   Overcast
6:55 PM 37.0 °F 32.4 °F 21.0 °F 52% 30.17 in 10.0 mi NNW 5.8 mph - N/A   Overcast
7:55 PM 36.0 °F 31.1 °F 19.0 °F 50% 30.17 in 10.0 mi WNW 5.8 mph - N/A   Scattered Clouds
8:55 PM 34.0 °F 29.8 °F 19.0 °F 54% 30.20 in 10.0 mi ENE 4.6 mph - N/A   Mostly Cloudy
9:55 PM 34.0 °F 31.0 °F 19.9 °F 56% 30.19 in 10.0 mi South 3.5 mph - N/A   Overcast
10:55 PM 34.0 °F - 19.9 °F 56% 30.21 in 10.0 mi Calm Calm - N/A   Overcast
11:55 PM 33.1 °F - 19.0 °F 56% 30.20 in 10.0 mi Calm Calm - N/A   Overcast